This is the latest recevied weather packets stored in our database for station/object EA7BW-10. If no packets are shown the sender has not sent any weather packets the latest 10 day(s).
| Time | Temp. | Humidity | Pressure | Rain* | Wind** | Luminosity | Snow |
|---|---|---|---|---|---|---|---|
| 1777516978 | 12.22° C | 65% | 1010 hPa | - | - | - | - |
| 1777515777 | 12.22° C | 65% | 1010 hPa | - | - | - | - |
| 1777514577 | 12.78° C | 65% | 1009.9 hPa | - | - | - | - |
| 1777513377 | 12.78° C | 64% | 1010 hPa | - | - | - | - |
| 1777512177 | 13.33° C | 64% | 1009.9 hPa | - | - | - | - |
| 1777510977 | 13.33° C | 64% | 1010 hPa | - | - | - | - |
| 1777509777 | 13.89° C | 63% | 1010.1 hPa | - | - | - | - |
| 1777508577 | 13.89° C | 63% | 1010 hPa | - | - | - | - |
| 1777507377 | 14.44° C | 62% | 1009.9 hPa | - | - | - | - |
| 1777506177 | 15° C | 62% | 1009.7 hPa | - | - | - | - |
| 1777504977 | 15.56° C | 61% | 1009.4 hPa | - | - | - | - |
| 1777503778 | 16.11° C | 60% | 1009.3 hPa | - | - | - | - |
| 1777502576 | 16.67° C | 59% | 1009.2 hPa | - | - | - | - |
| 1777501376 | 17.22° C | 59% | 1009 hPa | - | - | - | - |
| 1777500176 | 18.33° C | 57% | 1009.2 hPa | - | - | - | - |
| 1777498976 | 18.89° C | 57% | 1009.1 hPa | - | - | - | - |
| 1777497776 | 18.89° C | 57% | 1008.8 hPa | - | - | - | - |
| 1777496576 | 19.44° C | 56% | 1008.6 hPa | - | - | - | - |
| 1777495376 | 20° C | 56% | 1008 hPa | - | - | - | - |
| 1777494176 | 20° C | 56% | 1007.7 hPa | - | - | - | - |
| 1777492976 | 20.56° C | 55% | 1007.1 hPa | - | - | - | - |
| 1777491776 | 20.56° C | 55% | 1006.7 hPa | - | - | - | - |
| 1777490575 | 21.11° C | 55% | 1006.3 hPa | - | - | - | - |
| 1777489378 | 21.67° C | 54% | 1006 hPa | - | - | - | - |
| 1777488177 | 21.67° C | 54% | 1005.7 hPa | - | - | - | - |
* Rain since midnight (hover to see other rain measurements)
** Current wind speed in m/s (hover to see current wind gust speed)